Volver al catálogo

STARLINK-1423

ActivoComunicacionesVLEO
NORAD 45710·PAYLOAD·🇺🇸 United States

Lanzado Jun 4, 2020 desde Cape Canaveral Space Force Station

Loading…

Próximos Pases (próximas 24 horas)

TLE

ActualizadoSource: CelesTrak SupGP

Época: Sep 14, 2026, 22:07 UTC

1 45710C 20035BF  26257.92201389  .00080925  00000+0  37010-3 0  2577
2 45710  53.0371 167.5737 0006937  85.4506  53.8991 15.82942649    13

Sigue STARLINK-1423 en tiempo real con AllMySat

Download on the App Store